• In Portugal
  • List of Countries
  • For 7 days
  • Water Temperature
  • Satellite Maps
  • Weather Map
  • Weather Widgets
  • user-avatar
    Login

    Hourly Weather Fier

    Today, 15 December, Friday

    Time Temperature Precipitation Wind Pressure Humidity
    00:00 +9°C° 0 mm 5 mps 761 mmHg 84%
    01:00 +9°C° 0 mm 6 mps 760 mmHg 85%
    02:00 +9°C° 0 mm 6 mps 760 mmHg 85%
    03:00 +9°C° 0 mm 6 mps 760 mmHg 86%
    04:00 +9°C° 0 mm 6 mps 760 mmHg 86%
    05:00 +9°C° 0 mm 6 mps 760 mmHg 86%
    06:00 +10°C° 0 mm 6 mps 760 mmHg 86%
    07:00 +10°C° 0 mm 6 mps 759 mmHg 87%
    08:00 +11°C° 0.1 mm 7 mps 759 mmHg 84%
    09:00 +12°C° 0.1 mm 7 mps 758 mmHg 81%
    10:00 +13°C° 0.1 mm 8 mps 758 mmHg 79%
    11:00 +13°C° 0.1 mm 8 mps 758 mmHg 77%
    12:00 +15°C° 0.1 mm 9 mps 757 mmHg 76%
    13:00 +15°C° 0.1 mm 9 mps 757 mmHg 74%
    14:00 +15°C° 0 mm 9 mps 757 mmHg 77%
    15:00 +13°C° 0 mm 9 mps 757 mmHg 79%
    16:00 +12°C° 0 mm 9 mps 756 mmHg 82%
    17:00 +12°C° 0 mm 9 mps 756 mmHg 84%
    18:00 +12°C° 0 mm 9 mps 756 mmHg 86%
    19:00 +11°C° 0 mm 9 mps 756 mmHg 87%
    20:00 +11°C° 0 mm 9 mps 756 mmHg 87%
    21:00 +11°C° 0 mm 9 mps 756 mmHg 88%
    22:00 +11°C° 0 mm 9 mps 756 mmHg 88%
    23:00 +11°C° 0.1 mm 9 mps 756 mmHg 88%

    Tomorrow, 16 December, Saturday

    Time Temperature Precipitation Wind Pressure Humidity
    00:00 +11°C° 0.1 mm 9 mps 755 mmHg 88%
    01:00 +11°C° 0.1 mm 9 mps 755 mmHg 88%
    02:00 +12°C° 0.1 mm 9 mps 755 mmHg 87%
    03:00 +12°C° 0.1 mm 9 mps 754 mmHg 87%
    04:00 +12°C° 0.1 mm 9 mps 754 mmHg 86%
    05:00 +12°C° 0.3 mm 9 mps 754 mmHg 86%
    06:00 +12°C° 0.3 mm 9 mps 754 mmHg 86%
    07:00 +12°C° 0.3 mm 8 mps 754 mmHg 86%
    08:00 +12°C° 1.1 mm 8 mps 754 mmHg 84%
    09:00 +13°C° 1.1 mm 8 mps 754 mmHg 83%
    10:00 +15°C° 1.1 mm 8 mps 755 mmHg 81%
    11:00 +14°C° 1.8 mm 7 mps 754 mmHg 83%
    12:00 +14°C° 1.8 mm 6 mps 754 mmHg 84%
    13:00 +14°C° 1.8 mm 5 mps 754 mmHg 86%
    14:00 +13°C° 1.7 mm 4 mps 754 mmHg 88%
    15:00 +13°C° 1.7 mm 4 mps 754 mmHg 91%
    16:00 +12°C° 1.7 mm 3 mps 754 mmHg 93%
    17:00 +13°C° 1.5 mm 2 mps 754 mmHg 94%
    18:00 +13°C° 1.5 mm 2 mps 754 mmHg 95%
    19:00 +13°C° 1.5 mm 1 mps 755 mmHg 96%
    20:00 +12°C° 1.2 mm 1 mps 755 mmHg 96%
    21:00 +12°C° 1.2 mm 1 mps 755 mmHg 96%
    22:00 +12°C° 1.2 mm 2 mps 755 mmHg 96%
    23:00 +12°C° 0.9 mm 2 mps 756 mmHg 96%

    Day after tomorrow, 17 December, Sunday

    Time Temperature Precipitation Wind Pressure Humidity
    00:00 +12°C° 0.9 mm 2 mps 756 mmHg 96%
    01:00 +10°C° 0.9 mm 3 mps 756 mmHg 96%
    02:00 +10°C° 0.4 mm 3 mps 756 mmHg 95%
    03:00 +10°C° 0.4 mm 3 mps 756 mmHg 93%
    04:00 +9°C° 0.4 mm 3 mps 756 mmHg 91%
    05:00 +9°C° 0.1 mm 3 mps 756 mmHg 90%
    06:00 +9°C° 0.1 mm 2 mps 757 mmHg 89%
    07:00 +8°C° 0.1 mm 2 mps 757 mmHg 87%
    08:00 +9°C° 0.1 mm 2 mps 757 mmHg 80%
    09:00 +10°C° 0.1 mm 3 mps 758 mmHg 72%
    10:00 +11°C° 0.1 mm 3 mps 758 mmHg 64%
    11:00 +11°C° 0.3 mm 4 mps 758 mmHg 65%
    12:00 +11°C° 0.3 mm 4 mps 758 mmHg 66%
    13:00 +10°C° 0.3 mm 5 mps 758 mmHg 66%
    14:00 +11°C° 0.2 mm 4 mps 758 mmHg 71%
    15:00 +10°C° 0.2 mm 4 mps 759 mmHg 76%
    16:00 +8°C° 0.2 mm 4 mps 759 mmHg 81%
    17:00 +8°C° 0.4 mm 4 mps 760 mmHg 81%
    18:00 +7°C° 0.4 mm 5 mps 760 mmHg 81%
    19:00 +7°C° 0.4 mm 5 mps 761 mmHg 81%
    20:00 +7°C° 0.6 mm 6 mps 762 mmHg 82%
    21:00 +7°C° 0.6 mm 6 mps 762 mmHg 82%
    22:00 +5°C° 0.6 mm 6 mps 763 mmHg 82%
    23:00 +5°C° 0.7 mm 6 mps 763 mmHg 84%

    18 December, Monday

    Time Temperature Precipitation Wind Pressure Humidity
    00:00 +5°C° 0.7 mm 6 mps 763 mmHg 85%
    01:00 +6°C° 0.7 mm 5 mps 764 mmHg 86%
    02:00 +6°C° 0.3 mm 5 mps 764 mmHg 88%
    03:00 +6°C° 0.3 mm 4 mps 764 mmHg 89%
    04:00 +6°C° 0.3 mm 4 mps 764 mmHg 91%
    05:00 +5°C° 0.1 mm 4 mps 765 mmHg 90%
    06:00 +5°C° 0.1 mm 3 mps 765 mmHg 90%
    07:00 +5°C° 0.1 mm 3 mps 765 mmHg 90%
    08:00 +5°C° 0 mm 3 mps 766 mmHg 85%
    09:00 +6°C° 0 mm 4 mps 766 mmHg 80%
    10:00 +7°C° 0 mm 4 mps 766 mmHg 75%
    11:00 +7°C° 0 mm 4 mps 766 mmHg 73%
    12:00 +7°C° 0 mm 4 mps 766 mmHg 71%
    13:00 +7°C° 0 mm 4 mps 766 mmHg 69%
    14:00 +7°C° 0 mm 4 mps 766 mmHg 72%
    15:00 +6°C° 0 mm 4 mps 766 mmHg 75%
    16:00 +6°C° 0 mm 4 mps 766 mmHg 78%
    17:00 +5°C° 0 mm 4 mps 766 mmHg 80%
    18:00 +4°C° 0 mm 3 mps 766 mmHg 82%
    19:00 +3°C° 0 mm 3 mps 766 mmHg 84%
    20:00 +3°C° 0 mm 3 mps 767 mmHg 83%
    21:00 +4°C° 0 mm 2 mps 767 mmHg 83%
    22:00 +4°C° 0 mm 2 mps 767 mmHg 83%
    23:00 +3°C° 0 mm 2 mps 767 mmHg 82%

    19 December, Tuesday

    Time Temperature Precipitation Wind Pressure Humidity
    00:00 +3°C° 0 mm 2 mps 767 mmHg 82%
    01:00 +3°C° 0 mm 2 mps 767 mmHg 81%
    02:00 +3°C° 0 mm 2 mps 767 mmHg 80%
    03:00 +3°C° 0 mm 2 mps 768 mmHg 79%
    04:00 +3°C° 0 mm 2 mps 768 mmHg 77%
    05:00 +3°C° 0 mm 2 mps 768 mmHg 76%
    06:00 +3°C° 0 mm 2 mps 768 mmHg 75%
    07:00 +3°C° 0 mm 2 mps 769 mmHg 74%
    08:00 +4°C° 0 mm 2 mps 769 mmHg 68%
    09:00 +6°C° 0 mm 2 mps 769 mmHg 62%
    10:00 +7°C° 0 mm 2 mps 770 mmHg 56%
    11:00 +8°C° 0 mm 2 mps 769 mmHg 53%
    12:00 +9°C° 0 mm 2 mps 769 mmHg 49%
    13:00 +10°C° 0 mm 1 mps 769 mmHg 46%
    14:00 +8°C° 0 mm 2 mps 769 mmHg 51%
    15:00 +7°C° 0 mm 2 mps 769 mmHg 55%
    16:00 +7°C° 0 mm 2 mps 769 mmHg 60%
    17:00 +6°C° 0 mm 2 mps 769 mmHg 61%
    18:00 +5°C° 0 mm 2 mps 769 mmHg 62%
    19:00 +5°C° 0 mm 2 mps 769 mmHg 64%
    20:00 +5°C° 0 mm 2 mps 769 mmHg 64%
    21:00 +5°C° 0 mm 2 mps 769 mmHg 64%
    22:00 +4°C° 0 mm 2 mps 769 mmHg 64%
    23:00 +4°C° 0 mm 2 mps 769 mmHg 64%

    20 December, Wednesday

    Time Temperature Precipitation Wind Pressure Humidity
    00:00 +4°C° 0 mm 2 mps 769 mmHg 64%
    01:00 +4°C° 0 mm 2 mps 769 mmHg 64%
    02:00 +4°C° 0 mm 2 mps 769 mmHg 64%
    03:00 +4°C° 0 mm 2 mps 769 mmHg 64%
    04:00 +4°C° 0 mm 2 mps 769 mmHg 64%
    05:00 +4°C° 0 mm 2 mps 769 mmHg 65%
    06:00 +4°C° 0 mm 2 mps 769 mmHg 65%
    07:00 +4°C° 0 mm 2 mps 769 mmHg 65%
    08:00 +4°C° 0 mm 3 mps 769 mmHg 61%
    09:00 +5°C° 0 mm 3 mps 769 mmHg 57%
    10:00 +8°C° 0 mm 3 mps 769 mmHg 53%
    11:00 +8°C° 0 mm 3 mps 768 mmHg 51%
    12:00 +9°C° 0 mm 3 mps 768 mmHg 49%
    13:00 +9°C° 0 mm 3 mps 768 mmHg 47%
    14:00 +8°C° 0 mm 3 mps 768 mmHg 52%
    15:00 +7°C° 0 mm 3 mps 768 mmHg 56%
    16:00 +6°C° 0 mm 4 mps 768 mmHg 61%
    17:00 +5°C° 0 mm 4 mps 768 mmHg 63%
    18:00 +4°C° 0 mm 4 mps 768 mmHg 65%
    19:00 +3°C° 0 mm 4 mps 768 mmHg 67%
    20:00 +2°C° 0 mm 5 mps 769 mmHg 68%
    21:00 +2°C° 0 mm 5 mps 769 mmHg 69%
    22:00 +2°C° 0 mm 5 mps 769 mmHg 69%
    23:00 +2°C° 0 mm 5 mps 769 mmHg 70%
    Show more